When you browse on this site, cookies collect data to enhance your experience and personalize the content and advertising you see.
Visit our Privacy Policy to learn more. By continuing to use the site, you agree to this use of cookies and data.
  • In Slovakia
  • List of Countries
  • For 7 days
  • Water Temperature
  • Weather Map
  • Weather Widgets
  • user-avatar
    Login

    Hourly Weather Ashtarak

    Today, 19 September, Thursday

    Time Temperature Precipitation Wind Pressure Humidity
    00:00 +19°C° 0 mm 1 mps 660 mmHg 37%
    01:00 +19°C° 0 mm 1 mps 660 mmHg 38%
    02:00 +18°C° 0 mm 1 mps 660 mmHg 38%
    03:00 +18°C° 0 mm 1 mps 660 mmHg 39%
    04:00 +18°C° 0 mm 1 mps 660 mmHg 40%
    05:00 +16°C° 0 mm 1 mps 660 mmHg 41%
    06:00 +16°C° 0 mm 1 mps 660 mmHg 42%
    07:00 +19°C° 0 mm 1 mps 660 mmHg 37%
    08:00 +22°C° 0 mm 1 mps 661 mmHg 33%
    09:00 +25°C° 0 mm 1 mps 661 mmHg 28%
    10:00 +26°C° 0 mm 1 mps 661 mmHg 27%
    11:00 +27°C° 0 mm 2 mps 661 mmHg 25%
    12:00 +28°C° 0 mm 2 mps 662 mmHg 23%
    13:00 +28°C° 0 mm 2 mps 661 mmHg 21%
    14:00 +29°C° 0 mm 2 mps 661 mmHg 20%
    15:00 +29°C° 0 mm 2 mps 661 mmHg 19%
    16:00 +27°C° 0 mm 1 mps 661 mmHg 22%
    17:00 +25°C° 0 mm 1 mps 660 mmHg 25%
    18:00 +24°C° 0 mm 1 mps 660 mmHg 28%
    19:00 +23°C° 0 mm 1 mps 660 mmHg 29%
    20:00 +21°C° 0 mm 2 mps 660 mmHg 30%
    21:00 +20°C° 0 mm 2 mps 660 mmHg 31%
    22:00 +20°C° 0 mm 2 mps 660 mmHg 33%
    23:00 +19°C° 0 mm 2 mps 660 mmHg 35%

    Tomorrow, 20 September, Friday

    Time Temperature Precipitation Wind Pressure Humidity
    00:00 +19°C° 0 mm 2 mps 660 mmHg 36%
    01:00 +18°C° 0 mm 2 mps 659 mmHg 38%
    02:00 +18°C° 0 mm 2 mps 659 mmHg 40%
    03:00 +17°C° 0 mm 2 mps 659 mmHg 42%
    04:00 +17°C° 0 mm 2 mps 659 mmHg 43%
    05:00 +16°C° 0 mm 2 mps 658 mmHg 44%
    06:00 +16°C° 0 mm 2 mps 658 mmHg 45%
    07:00 +18°C° 0 mm 2 mps 659 mmHg 40%
    08:00 +21°C° 0 mm 2 mps 659 mmHg 34%
    09:00 +25°C° 0 mm 1 mps 660 mmHg 29%
    10:00 +26°C° 0 mm 2 mps 660 mmHg 26%
    11:00 +27°C° 0 mm 3 mps 659 mmHg 24%
    12:00 +28°C° 0 mm 3 mps 659 mmHg 22%
    13:00 +29°C° 0 mm 3 mps 659 mmHg 20%
    14:00 +29°C° 0 mm 3 mps 658 mmHg 19%
    15:00 +30°C° 0 mm 3 mps 658 mmHg 17%
    16:00 +28°C° 0 mm 3 mps 657 mmHg 20%
    17:00 +26°C° 0 mm 2 mps 657 mmHg 23%
    18:00 +24°C° 0 mm 2 mps 656 mmHg 26%
    19:00 +24°C° 0 mm 2 mps 656 mmHg 26%
    20:00 +23°C° 0 mm 2 mps 656 mmHg 26%
    21:00 +23°C° 0 mm 2 mps 656 mmHg 26%
    22:00 +21°C° 0 mm 2 mps 656 mmHg 28%
    23:00 +21°C° 0 mm 2 mps 655 mmHg 29%

    Day after tomorrow, 21 September, Saturday

    Time Temperature Precipitation Wind Pressure Humidity
    00:00 +20°C° 0 mm 2 mps 655 mmHg 30%
    01:00 +20°C° 0 mm 2 mps 655 mmHg 32%
    02:00 +19°C° 0 mm 2 mps 654 mmHg 34%
    03:00 +20°C° 0 mm 1 mps 654 mmHg 36%
    04:00 +18°C° 0 mm 2 mps 654 mmHg 39%
    05:00 +17°C° 0 mm 2 mps 653 mmHg 43%
    06:00 +16°C° 0 mm 2 mps 653 mmHg 46%
    07:00 +18°C° 0 mm 3 mps 653 mmHg 43%
    08:00 +20°C° 0 mm 3 mps 654 mmHg 39%
    09:00 +22°C° 0 mm 3 mps 654 mmHg 36%
    10:00 +23°C° 0 mm 4 mps 655 mmHg 33%
    11:00 +25°C° 0 mm 5 mps 655 mmHg 30%
    12:00 +27°C° 0 mm 6 mps 655 mmHg 27%
    13:00 +26°C° 0 mm 7 mps 655 mmHg 29%
    14:00 +26°C° 0 mm 7 mps 655 mmHg 30%
    15:00 +24°C° 0 mm 7 mps 655 mmHg 31%
    16:00 +22°C° 0 mm 6 mps 655 mmHg 34%
    17:00 +20°C° 0 mm 6 mps 655 mmHg 36%
    18:00 +16°C° 0 mm 5 mps 656 mmHg 39%
    19:00 +15°C° 0 mm 5 mps 656 mmHg 40%
    20:00 +14°C° 0 mm 4 mps 657 mmHg 41%
    21:00 +12°C° 0 mm 4 mps 658 mmHg 42%
    22:00 +12°C° 0 mm 4 mps 658 mmHg 44%
    23:00 +11°C° 0 mm 3 mps 658 mmHg 47%

    22 September, Sunday

    Time Temperature Precipitation Wind Pressure Humidity
    00:00 +10°C° 0 mm 3 mps 658 mmHg 50%
    01:00 +10°C° 0 mm 3 mps 658 mmHg 49%
    02:00 +9°C° 0 mm 3 mps 658 mmHg 49%
    03:00 +9°C° 0 mm 3 mps 658 mmHg 48%
    04:00 +8°C° 0 mm 2 mps 659 mmHg 48%
    05:00 +8°C° 0 mm 2 mps 659 mmHg 48%
    06:00 +9°C° 0 mm 1 mps 659 mmHg 48%
    07:00 +11°C° 0 mm 1 mps 660 mmHg 43%
    08:00 +13°C° 0 mm 1 mps 660 mmHg 38%
    09:00 +15°C° 0 mm 1 mps 661 mmHg 33%
    10:00 +16°C° 0 mm 1 mps 661 mmHg 31%
    11:00 +17°C° 0 mm 2 mps 660 mmHg 29%
    12:00 +19°C° 0 mm 2 mps 660 mmHg 26%
    13:00 +19°C° 0 mm 2 mps 660 mmHg 26%
    14:00 +20°C° 0 mm 2 mps 660 mmHg 25%
    15:00 +20°C° 0 mm 2 mps 659 mmHg 24%
    16:00 +19°C° 0 mm 2 mps 659 mmHg 29%
    17:00 +18°C° 0 mm 1 mps 658 mmHg 34%
    18:00 +15°C° 0 mm 1 mps 658 mmHg 38%
    19:00 +14°C° 0 mm 1 mps 658 mmHg 42%
    20:00 +14°C° 0 mm 2 mps 658 mmHg 45%
    21:00 +12°C° 0 mm 3 mps 658 mmHg 49%
    22:00 +13°C° 0 mm 2 mps 658 mmHg 50%
    23:00 +13°C° 0 mm 2 mps 658 mmHg 50%

    23 September, Monday

    Time Temperature Precipitation Wind Pressure Humidity
    00:00 +12°C° 0 mm 2 mps 658 mmHg 51%
    01:00 +12°C° 0 mm 2 mps 658 mmHg 52%
    02:00 +10°C° 0 mm 2 mps 658 mmHg 54%
    03:00 +11°C° 0 mm 1 mps 658 mmHg 55%
    04:00 +11°C° 0 mm 1 mps 658 mmHg 56%
    05:00 +10°C° 0 mm 1 mps 658 mmHg 56%
    06:00 +10°C° 0 mm 1 mps 658 mmHg 57%
    07:00 +13°C° 0 mm 1 mps 659 mmHg 51%
    08:00 +15°C° 0 mm 1 mps 660 mmHg 44%
    09:00 +19°C° 0 mm 1 mps 660 mmHg 38%
    10:00 +20°C° 0 mm 1 mps 661 mmHg 35%
    11:00 +20°C° 0 mm 2 mps 661 mmHg 33%
    12:00 +23°C° 0 mm 2 mps 661 mmHg 30%
    13:00 +23°C° 0 mm 2 mps 661 mmHg 28%
    14:00 +24°C° 0 mm 2 mps 660 mmHg 26%
    15:00 +24°C° 0 mm 2 mps 660 mmHg 25%
    16:00 +22°C° 0 mm 1 mps 660 mmHg 30%
    17:00 +20°C° 0 mm 1 mps 659 mmHg 36%
    18:00 +18°C° 0 mm 1 mps 659 mmHg 42%
    19:00 +17°C° 0 mm 2 mps 659 mmHg 45%
    20:00 +16°C° 0 mm 2 mps 660 mmHg 49%
    21:00 +14°C° 0 mm 3 mps 660 mmHg 53%
    22:00 +14°C° 0 mm 3 mps 660 mmHg 53%
    23:00 +13°C° 0 mm 3 mps 660 mmHg 53%

    24 September, Tuesday

    Time Temperature Precipitation Wind Pressure Humidity
    00:00 +13°C° 0 mm 3 mps 660 mmHg 53%
    01:00 +12°C° 0 mm 3 mps 660 mmHg 55%
    02:00 +13°C° 0 mm 2 mps 660 mmHg 57%
    03:00 +12°C° 0 mm 2 mps 660 mmHg 58%
    04:00 +12°C° 0 mm 2 mps 660 mmHg 60%
    05:00 +12°C° 0 mm 2 mps 660 mmHg 62%
    06:00 +10°C° 0 mm 2 mps 660 mmHg 64%
    07:00 +13°C° 0 mm 2 mps 660 mmHg 58%
    08:00 +15°C° 0 mm 2 mps 661 mmHg 52%
    09:00 +18°C° 0 mm 2 mps 661 mmHg 46%
    10:00 +19°C° 0 mm 2 mps 661 mmHg 43%
    11:00 +20°C° 0 mm 2 mps 661 mmHg 40%
    12:00 +23°C° 0 mm 2 mps 661 mmHg 36%
    13:00 +23°C° 0 mm 2 mps 661 mmHg 35%
    14:00 +24°C° 0 mm 2 mps 660 mmHg 33%
    15:00 +24°C° 0 mm 2 mps 660 mmHg 32%
    16:00 +21°C° 0 mm 2 mps 659 mmHg 37%
    17:00 +21°C° 0 mm 1 mps 659 mmHg 42%
    18:00 +19°C° 0 mm 1 mps 658 mmHg 48%
    19:00 +18°C° 0 mm 1 mps 658 mmHg 49%
    20:00 +17°C° 0 mm 2 mps 658 mmHg 50%
    21:00 +16°C° 0 mm 2 mps 658 mmHg 51%
    22:00 +16°C° 0 mm 2 mps 658 mmHg 51%
    23:00 +15°C° 0 mm 2 mps 658 mmHg 51%
    Show more